Weather History for Lancaster, SC

Change the Weather History Date:

Wednesday, November 21, 2012

  Actual Average (KUZA) Record (KUZA)
Temperature  
Mean Temperature 48 °F -  
Max Temperature 64 °F 59 °F 76 °F (1991)
Min Temperature 32 °F 39 °F 21 °F (2000)
Degree Days  
Heating Degree Days 17    
Moisture  
Dew Point 37 °F    
Average Humidity 79    
Maximum Humidity 100    
Minimum Humidity 32    
Precipitation  
Precipitation 0.00 in - - ()
Sea Level Pressure  
Sea Level Pressure 30.14 in    
Wind  
Wind Speed 2 mph (NNE)    
Max Wind Speed 10 mph    
Max Gust Speed -    
Visibility 8 miles    
Events      
Averages and records for this station are not official NWS values.
T = Trace of Precipitation, MM = Missing Value Source: NWS Daily Summary

Daily Weather History Graph

Daily Weather History Graph

Search for Another Location

Airport:

Trip Planner

Search our weather history database for the weather conditions in past years. The results will help you decide how hot, cold, wet, or windy it might be!

Date:

Astronomy

Nov. 21, 2012 Rise Set
Actual Time 7:03 AM EST 5:15 PM EST
Civil Twilight 6:36 AM EST 5:42 PM EST
Nautical Twilight 6:05 AM EST 6:12 PM EST
Astronomical Twilight 5:35 AM EST 6:43 PM EST
Moon 1:17 PM EST (11/21) 12:36 AM EST (11/21)
Length of Visible Light 11h 05m
Length of Day
10h 11m
First Quarter, 61% of the Moon is Illuminated
Nov 21
First Quarter
Nov 28
Full
Dec 6
Last Quarter
Dec 13
New
Dec 20
First Quarter

Hourly Weather History & Observations

Time (EST) Temp. Windchill Dew Point Humidity Pressure Visibility Wind Dir Wind Speed Gust Speed Precip Events Conditions
12:15 AM 35.6 °F - 35.6 °F 100% 30.11 in 7.0 mi Calm Calm - N/A   Clear
12:35 AM 35.6 °F - 35.6 °F 100% 30.10 in 5.0 mi Calm Calm - N/A   Clear
12:55 AM 35.6 °F - 35.6 °F 100% 30.10 in 7.0 mi Calm Calm - N/A   Clear
1:15 AM 37.4 °F - 37.4 °F 100% 30.09 in 8.0 mi Calm Calm - N/A   Clear
1:35 AM 37.4 °F - 37.4 °F 100% 30.09 in 7.0 mi Calm Calm - N/A   Clear
1:55 AM 35.6 °F - 35.6 °F 100% 30.09 in 6.0 mi Calm Calm - N/A   Clear
2:15 AM 35.6 °F - 35.6 °F 100% 30.10 in 5.0 mi Calm Calm - N/A   Clear
2:35 AM 33.8 °F - 33.8 °F 100% 30.10 in 6.0 mi Calm Calm - N/A   Clear
2:55 AM 33.8 °F - 33.8 °F 100% 30.10 in 5.0 mi Calm Calm - N/A   Clear
3:15 AM 33.8 °F - 33.8 °F 100% 30.10 in 5.0 mi Calm Calm - N/A   Clear
3:35 AM 33.8 °F - 33.8 °F 100% 30.10 in 5.0 mi Calm Calm - N/A   Clear
3:55 AM 32.0 °F - 32.0 °F 100% 30.10 in 5.0 mi Calm Calm - N/A   Clear
4:15 AM 32.0 °F - 32.0 °F 100% 30.10 in 5.0 mi Calm Calm - N/A   Clear
4:35 AM 32.0 °F - 32.0 °F 100% 30.11 in 5.0 mi Calm Calm - N/A   Clear
4:55 AM 32.0 °F - 32.0 °F 100% 30.11 in 5.0 mi Calm Calm - N/A   Clear
5:15 AM 32.0 °F - 32.0 °F 100% 30.11 in 5.0 mi Calm Calm - N/A   Clear
5:35 AM 32.0 °F - 32.0 °F 100% 30.12 in 6.0 mi Calm Calm - N/A   Clear
5:55 AM 32.0 °F - 32.0 °F 100% 30.12 in 5.0 mi Calm Calm - N/A   Clear
6:15 AM 32.0 °F - 32.0 °F 100% 30.12 in 10.0 mi Calm Calm - N/A   Clear
6:55 AM 32.0 °F - 32.0 °F 100% 30.13 in 5.0 mi Calm Calm - N/A   Clear
7:15 AM 32.0 °F - 32.0 °F 100% 30.14 in 4.0 mi Calm Calm - N/A   Clear
7:35 AM 32.0 °F - 32.0 °F 100% 30.15 in 4.0 mi Calm Calm - N/A   Clear
7:55 AM 35.6 °F - 35.6 °F 100% 30.15 in 5.0 mi Calm Calm - N/A   Clear
8:15 AM 37.4 °F - 37.4 °F 100% 30.16 in 5.0 mi Calm Calm - N/A   Clear
8:35 AM 41.0 °F - 41.0 °F 100% 30.17 in 7.0 mi Calm Calm - N/A   Clear
8:55 AM 44.6 °F - 44.6 °F 100% 30.17 in 8.0 mi Calm Calm - N/A   Clear
9:15 AM 46.4 °F 44.3 °F 46.4 °F 100% 30.17 in 10.0 mi NNE 4.6 mph - N/A   Clear
9:35 AM 48.2 °F - 46.4 °F 93% 30.17 in 10.0 mi NNE 8.1 mph - N/A   Clear
9:55 AM 50.0 °F - 46.4 °F 87% 30.17 in 10.0 mi NNE 5.8 mph - N/A   Clear
10:15 AM 53.6 °F - 46.4 °F 77% 30.18 in 10.0 mi NNE 9.2 mph - N/A   Clear
10:35 AM 55.4 °F - 44.6 °F 67% 30.18 in 10.0 mi NNE 6.9 mph - N/A   Clear
10:55 AM 57.2 °F - 44.6 °F 63% 30.17 in 10.0 mi North 6.9 mph - N/A   Clear
11:15 AM 57.2 °F - 41.0 °F 55% 30.17 in 10.0 mi North 6.9 mph - N/A   Clear
11:55 AM 59.0 °F - 39.2 °F 48% 30.15 in 10.0 mi North 8.1 mph - N/A   Clear
12:15 PM 59.0 °F - 37.4 °F 45% 30.15 in 10.0 mi NE 6.9 mph - N/A   Clear
12:35 PM 60.8 °F - 35.6 °F 39% 30.14 in 10.0 mi North 9.2 mph - N/A   Clear
12:55 PM 62.6 °F - 37.4 °F 39% 30.14 in 10.0 mi ENE 5.8 mph - N/A   Clear
1:15 PM 62.6 °F - 35.6 °F 37% 30.13 in 10.0 mi ENE 5.8 mph - N/A   Clear
1:35 PM 62.6 °F - 35.6 °F 37% 30.12 in 10.0 mi North 5.8 mph - N/A   Clear
1:55 PM 62.6 °F - 35.6 °F 37% 30.12 in 10.0 mi NNE 9.2 mph - N/A   Clear
2:15 PM 64.4 °F - 35.6 °F 34% 30.11 in 10.0 mi NW 6.9 mph - N/A   Clear
2:35 PM 64.4 °F - 35.6 °F 34% 30.11 in 10.0 mi NNE 9.2 mph - N/A   Clear
2:55 PM 64.4 °F - 33.8 °F 32% 30.11 in 10.0 mi North 8.1 mph - N/A   Clear
3:15 PM 64.4 °F - 33.8 °F 32% 30.11 in 10.0 mi NNE 6.9 mph - N/A   Clear
3:35 PM 64.4 °F - 33.8 °F 32% 30.11 in 10.0 mi North 10.4 mph - N/A   Clear
3:55 PM 64.4 °F - 33.8 °F 32% 30.11 in 10.0 mi North 6.9 mph - N/A   Clear
4:15 PM 62.6 °F - 32.0 °F 32% 30.11 in 10.0 mi NNW 4.6 mph - N/A   Clear
4:35 PM 62.6 °F - 33.8 °F 34% 30.12 in 10.0 mi North 5.8 mph - N/A   Clear
4:55 PM 59.0 °F - 35.6 °F 42% 30.12 in 10.0 mi North 3.5 mph - N/A   Clear
5:15 PM 53.6 °F - 39.2 °F 58% 30.13 in 10.0 mi Calm Calm - N/A   Clear
5:35 PM 50.0 °F - 39.2 °F 66% 30.13 in 10.0 mi Calm Calm - N/A   Clear
5:55 PM 48.2 °F - 39.2 °F 71% 30.13 in 10.0 mi Calm Calm - N/A   Clear
6:15 PM 46.4 °F - 39.2 °F 76% 30.13 in 10.0 mi Calm Calm - N/A   Clear
6:35 PM 44.6 °F - 39.2 °F 81% 30.14 in 10.0 mi Calm Calm - N/A   Clear
6:55 PM 44.6 °F - 39.2 °F 81% 30.14 in 10.0 mi Calm Calm - N/A   Clear
7:15 PM 42.8 °F - 39.2 °F 87% 30.14 in 10.0 mi Calm Calm - N/A   Clear
7:35 PM 42.8 °F - 39.2 °F 87% 30.15 in 10.0 mi Calm Calm - N/A   Clear
7:55 PM 41.0 °F - 39.2 °F 93% 30.15 in 10.0 mi Calm Calm - N/A   Clear
8:15 PM 39.2 °F - 39.2 °F 100% 30.16 in 10.0 mi Calm Calm - N/A   Clear
8:35 PM 39.2 °F - 37.4 °F 93% 30.16 in 10.0 mi Calm Calm - N/A   Clear
8:55 PM 39.2 °F - 39.2 °F 100% 30.16 in 10.0 mi Calm Calm - N/A   Clear
9:15 PM 39.2 °F - 37.4 °F 93% 30.17 in 10.0 mi Calm Calm - N/A   Clear
9:35 PM 37.4 °F - 37.4 °F 100% 30.17 in 10.0 mi Calm Calm - N/A   Clear
9:55 PM 39.2 °F 37.0 °F 37.4 °F 93% 30.17 in 10.0 mi NE 3.5 mph - N/A   Clear
10:15 PM 39.2 °F 37.0 °F 37.4 °F 93% 30.18 in 10.0 mi NE 3.5 mph - N/A   Clear
10:35 PM 39.2 °F 37.0 °F 37.4 °F 93% 30.18 in 10.0 mi NE 3.5 mph - N/A   Clear
10:55 PM 41.0 °F 39.0 °F 37.4 °F 87% 30.19 in 10.0 mi ENE 3.5 mph - N/A   Clear
11:15 PM 41.0 °F - 35.6 °F 81% 30.18 in 10.0 mi Calm Calm - N/A   Clear
11:35 PM 39.2 °F 37.0 °F 37.4 °F 93% 30.19 in 10.0 mi NE 3.5 mph - N/A   Clear
11:55 PM 39.2 °F 37.0 °F 37.4 °F 93% 30.19 in 10.0 mi NE 3.5 mph - N/A   Clear